This demonstration page uses our WeatherBlox Daily Observations layout. Learn more.

Left ArrowRight Arrow

31.84235, -102.49876

Hourly Observations for August 8, 2022

Temp ( °F °C ) Dew Point ( °F °C ) Humidity (%) Winds ( mph kmh ) Pressure ( in mb ) Visibility ( mi km ) Precip ( " mm )
12:53 am 00:53 Clear 84 28.9 54 12.2 36 36 S 10 17 29.97 1015 10 16 0.00 0.00
1:53 am 01:53 Clear 82 27.8 54 12.2 38 38 S 8 13 29.96 1015 10 16 0.00 0.00
2:53 am 02:53 Clear 81 27.2 54 12.2 39 39 S 8 13 29.95 1014 10 16 0.00 0.00
3:53 am 03:53 Clear 81 27.2 57 13.9 44 44 SSE 16 26 29.96 1014 10 16 0.00 0.00
4:53 am 04:53 Clear 79 26.1 57 13.9 47 47 SSE 14 22 29.96 1015 10 16 0.00 0.00
5:53 am 05:53 Clear 78 25.6 61 16.1 56 56 SSE 13 20 29.96 1015 10 16 0.00 0.00
6:53 am 06:53 Clear 76 24.4 63 17.2 64 64 SSE 9 15 29.98 1015 10 16 0.00 0.00
7:53 am 07:53 Sunny 76 24.4 64 17.8 67 67 S 9 15 29.99 1016 10 16 0.00 0.00
8:53 am 08:53 Sunny 79 26.1 65 18.3 62 62 S 17 28 30.00 1016 10 16 0.00 0.00
9:53 am 09:53 Sunny 81 27.2 65 18.3 58 58 S 16 26 30.01 1016 10 16 0.00 0.00
10:53 am 10:53 Sunny 85 29.4 63 17.2 48 48 SSE 15 24 30.00 1016 10 16 0.00 0.00
11:53 am 11:53 Sunny 88 31.1 61 16.1 41 41 S 13 20 30.01 1016 10 16 0.00 0.00
12:53 pm 12:53 Sunny 90 32.2 59 15 35 35 SSE 15 24 29.99 1016 10 16 0.00 0.00
1:53 pm 13:53 Partly Cloudy 93 33.9 59 15 32 32 SSE 13 20 29.97 1015 10 16 0.00 0.00
2:53 pm 14:53 Partly Cloudy 92 33.3 57 13.9 31 31 SSE 12 19 29.95 1014 10 16 0.00 0.00
3:53 pm 15:53 Mostly Sunny 95 35 57 13.9 28 28 S 8 13 29.91 1013 10 16 0.00 0.00
4:53 pm 16:53 Sunny 95 35 58 14.4 29 29 SSE 13 20 29.88 1012 10 16 0.00 0.00
5:53 pm 17:53 Mostly Sunny 96 35.6 56 13.3 26 26 SE 12 19 29.86 1011 10 16 0.00 0.00
6:53 pm 18:53 Mostly Sunny 95 35 54 12.2 25 25 ESE 10 17 29.86 1011 10 16 0.00 0.00
7:53 pm 19:53 Mostly Sunny 94 34.4 54 12.2 26 26 SSE 14 22 29.87 1011 10 16 0.00 0.00
8:53 pm 20:53 Partly Cloudy 92 33.3 55 12.8 29 29 SE 13 20 29.89 1012 10 16 0.00 0.00
9:53 pm 21:53 Clear 90 32.2 54 12.2 30 30 SSE 9 15 29.92 1013 10 16 0.00 0.00
10:53 pm 22:53 Clear 88 31.1 54 12.2 31 31 S 8 13 29.94 1014 10 16 0.00 0.00
11:53 pm 23:53 Clear 87 30.6 54 12.2 32 32 S 9 15 29.94 1014 10 16 0.00 0.00

Powered by AerisWeather